Погода в Сургуте

Погода в Сургуте : погода сейчас, прогноз погоды и архив. Всё, что Вы хотите узнать о погоде в Сургуте!

Хотите узнать прогноз погоды в Сургуте? Тогда Вам сюда: Погода в Сургуте

Поиск расширенной информации на нашем сайте:

Другие новости

Новости СМИ2

Главная страница сайта

Новости сайта

03.07.2017

Напоминаем, что на нашем специализированном сайте Метеоцентр.Азия вы можете получить высокодетализированные автоматические прогнозы погоды по пунктам России, СНГ и мира в авиационном формате (включающие направление и скорость ветра, видимость, явления погоды, количество и форму облачности, нижнюю и верхнюю границу облачности).


Погода в Сургуте - сегодня

Время (UTC), дата Ветер
(°,м/с) 
Видим.   Явления Облачность Т
(°С)
Тd
(°С)
f(%) Тe
(°С)
Pmin
(гПа)
dP
(гПа)
Po
(мм)
O2
(г/м3)
Тmin Tmax R s Состояние
почвы
18 13.05.18 200 (Ю) 4000 м    10/10 2000 м 
[Ns]
+2.9 -3.8 61 +2  1005.9  -4.2  749  299           
21 13.05.18 210 (ЮЗ) 4000 м    10/10 1440 м 
[Ns]
+3.5 -2.8 63 +2  1002  -3.8  746  297           
00 14.05.18 240 (ЮЗ) 4000 м    9/9 2000 м средняя 
[Ac trans]
+3.4 -2.4 66 +2  999.3  -2.6  744  296           
18 15.05.18 350 (С) 4000 м    8/4 1200 м кучево-дожд., средняя 
[Cb cap|Ac trans]
-3.8 -7.8 74 -7  1011.6  1.1  753  309           
18 16.05.18 280 (З) 4000 м    8/3 1080 м средняя 
[Sc|Ac trans]
-4.8 -9.3 71 -7  1018.3  -0.9  758  312           
21 16.05.18 280 (З) 4000 м    9/9 2000 м средняя 
[Ac trans]
-15.1 -8.6 100 -20  1017.4  -0.9  757  324           
18 17.05.18 040 (СВ) 0800 м  ливневой снег  ?/? 210 
-3.4 -3.8 97 -8  1008.9  -0.8  751  307           
15 18.05.18 340 (С) 4000 м    ясно 
-2.6 -9.2 60 -5  1021.5  1.6  760  310    -0.7       
18 18.05.18 310 (СЗ) 4000 м    3/0 верхняя 
[Ci fib]
-5.7 -8.8 79 -8  1022.5  0.9  761  314           
21 18.05.18 330 (СЗ) 4000 м    5/0 средняя 
[Ac trans]
-6.2 -8.3 85 -9  1022.8  0.3  761  315           
00 19.05.18 280 (З) 4000 м    8/8 570 м 
[Sc]
-4.5 -6.6 85 -6  1023.3  0.5  762  313           
06 19.05.18 310 (СЗ) 4000 м    10/10 700 м 
[Ns]
+0.4 -4.9 68 1023.9  762  307           
09 19.05.18 230 (ЮЗ) 4000 м    8/0 верхняя 
[Ci fib]
+5 -4.7 49 +6  1023.2  -0.6  762  302           
12 19.05.18 250 (З) 4000 м    5/0 верхняя 
[Ci fib]
+6.1 -3.1 52 +6  1022.2  -0.9  761  300           
15 19.05.18 130 (ЮВ) 4000 м    5/0 верхняя 
[Ci fib]
+4.6 -2.5 60 +3  1021  -1.3  760  302    +6.6       
18 19.05.18 130 (ЮВ) 4000 м    3/0 верхняя 
[Ci fib]
+1.5 -2.3 76 1020  -0.8  759  305           
21 19.05.18 170 (Ю) 4000 м    3/0 верхняя 
[Ci fib]
+2.7 -2.6 68 +1  1017.8  -2.2  758  303           
00 20.05.18 180 (Ю) 4000 м    5/0 средняя 
[Ac trans]
+5 -3.5 54 +3  1015.5  -2.2  756  300           
03 20.05.18 150 (ЮВ) 4000 м    9/0 средняя 
[Ac trans]
+6.8 -3.6 47 +5  1012.4  -3  754  297  +1.4         
06 20.05.18 160 (Ю) 4000 м    10/5 1500 м средняя 
[Sc|As op]
+9.7 -2.2 43 +8  1009.1  -3.2  752  293           
21 20.05.18 200 (Ю) 4000 м    6/3 1170 м средняя 
[Sc|Ac trans]
+8.3 +8.3 100 +8  999.6  -1.2  744  290           
18 21.05.18 300 (СЗ) 4000 м    ясно 
-0.9 -2 92 -2  1016.1  -0.1  756  306           
21 21.05.18 280 (З) 4000 м    ясно 
-2.6 -2.6 100 -4  1014.5  -1.5  755  308           
00 22.05.18 240 (ЮЗ) 4000 м    6/0 верхняя 
[Ci fib]
-0.5 -0.5 100 -2  1011.9  -2.3  753  304           
03 22.05.18 210 (ЮЗ) 4000 м    9/9 2000 м средняя 
[Ac trans]
+3.2 -1.7 70 +1  1007.6  -4.2  750  299  -2.8         
Время (UTC), дата Ветер
(°,м/с) 
Видим.   Явления Облачность Т
(°С)
Тd
(°С)
f(%) Тe
(°С)
Pmin
(гПа)
dP
(гПа)
Po
(мм)
O2
(г/м3)
Тmin Tmax R s Состояние
почвы

Для получения пояснительной информации подведите курсор к названию столбца.

ПОГОДА в Сургуте - архив

Всё, что Вы хотите узнать о погоде в Сургуте - удобно и подробно!

Выберите нужную дату (начиная с 1 января 2015* года) и нажмите кнопку "Найти".
Будут отображены архивные сводки погоды по пункту Сургут, начиная с указанной даты.


Отображать данные в формате CSV (для использования в таблицах Excel)


Внимание! Наш архив погоды предназначен исключительно для личного некоммерческого использования в познавательных целях. Если Вам необходимы официальные справки о состоянии погоды (для производственных, юридических, коммерческих и т.п. целей), обращайтесь в органы Росгидромета.

*Примечание: данная дата относится к архиву по метеостанциям СССР (Россия, СНГ, Балтия).
Архив по метеостанциям Зарубежной Европы и Азии (кроме Китая) хранится 10 дней, по другим регионам земного шара (Китай, Африка, Америка, Австралия, Океания) - 1 день.

Сургут - район местоположения метеостанции


Название, широта, долгота, высота метеостанции:
Сургут 61.2°ш. 73.6°д. 56 м над ур. моря [Российская Федерация]

Дополнительная информация

В oтличие oт бoльшинства пoгoдных сайтoв мы публикуем пoдрoбную метеoинфoрмацию в детальнoм прoфессиoнальнoм фoрмате.

Характеристики температуры и влажнoсти вoздуха измеряются на высoте 2 м в тени вдали oт зданий и деревьев.
Скoрoсть ветра измеряется на высoте 10 м (на урoвне рoста челoвека скoрoсть ветра ниже в 1.5-2 раза). Если метеoстанция нахoдится в гoрoде или в лесу, тo скoрoсть ветра занижена на 2-4 м/с пo сравнению с oткрытым местoм. Скoрoсть ветра над акватoриями крупных рек и oзёр, а также на вершинах хoлмoв на 2-5 м/с выше, чем в oбычных услoвиях.
Атмoсфернoе давление в разных тoчках местнoсти мoжет значительнo oтличаться oт давления на метеoстанции, в зависимoсти oт услoвий рельефа (при пoдъёме на 10 м давление пoнижается примернo на 1 мм рт.ст.).